This is the latest recevied weather packets stored in our database for station/object FW0690. If no packets are shown the sender has not sent any weather packets the latest 10 day(s).
| Time | Temp. | Humidity | Pressure | Rain* | Wind** | Luminosity | Snow |
|---|---|---|---|---|---|---|---|
| 1777816237 | 23.89° C | 20% | 1018.1 hPa | - | - | 43 W/m² | - |
| 1777815877 | 23.89° C | 20% | 1018.2 hPa | - | - | 43 W/m² | - |
| 1777815517 | 23.33° C | 20% | 1018.3 hPa | - | - | 43 W/m² | - |
| 1777815157 | 23.33° C | 21% | 1018.4 hPa | - | - | 43 W/m² | - |
| 1777814797 | 23.33° C | 21% | 1018.5 hPa | - | - | 43 W/m² | - |
| 1777814437 | 22.78° C | 21% | 1018.6 hPa | - | - | 43 W/m² | - |
| 1777814077 | 21.67° C | 22% | 1018.7 hPa | - | - | 43 W/m² | - |
| 1777813717 | 21.11° C | 21% | 1018.8 hPa | - | - | 43 W/m² | - |
| 1777813357 | 22.22° C | 22% | 1018.8 hPa | - | - | 252 W/m² | - |
| 1777812997 | 22.78° C | 22% | 1018.9 hPa | - | - | 252 W/m² | - |
| 1777812637 | 22.22° C | 23% | 1019 hPa | - | - | 52 W/m² | - |
| 1777812276 | 21.11° C | 23% | 1019 hPa | - | - | 34 W/m² | - |
| 1777811916 | 20.56° C | 24% | 1019.2 hPa | - | - | 32 W/m² | - |
| 1777811556 | 19.44° C | 25% | 1019.2 hPa | - | - | 39 W/m² | - |
| 1777811196 | 20° C | 26% | 1019.4 hPa | - | - | 36 W/m² | - |
| 1777810836 | 17.78° C | 26% | 1019.5 hPa | - | - | 48 W/m² | - |
| 1777810476 | 17.22° C | 25% | 1019.5 hPa | - | - | 29 W/m² | - |
| 1777810116 | 17.78° C | 24% | 1019.5 hPa | - | - | 33 W/m² | - |
| 1777809756 | 17.78° C | 24% | 1019.6 hPa | - | - | 38 W/m² | - |
| 1777809396 | 20° C | 24% | 1019.6 hPa | - | - | 44 W/m² | - |
| 1777809036 | 20° C | 25% | 1019.6 hPa | - | - | 42 W/m² | - |
| 1777808676 | 18.33° C | 25% | 1019.7 hPa | - | - | 43 W/m² | - |
| 1777808316 | 18.33° C | 25% | 1019.8 hPa | - | - | 38 W/m² | - |
| 1777807956 | 19.44° C | 25% | 1019.8 hPa | - | - | 40 W/m² | - |
| 1777807596 | 20° C | 25% | 1019.9 hPa | - | - | 35 W/m² | - |
* Rain since midnight (hover to see other rain measurements)
** Current wind speed in m/s (hover to see current wind gust speed)